{"data":{"norad_id":58893,"intl_designator":"2024-020T","name":"STARLINK-31255","alt_names":[],"object_type":"PAYLOAD","status":"ACTIVE","operator":null,"country":"US","launch_date":"2024-01-29","launch_site_code":"AFWTR","launch_vehicle":null,"mission":null,"orbit_class":"UNKNOWN","rcs_meters":null,"size_class":null,"mass_kg":null,"dimensions":null,"purposes":["comms"],"wikipedia_slug":null,"has_3d_model":false,"image_url":null,"decayed_at":null,"tle_current":{"epoch":"2026-05-24T22:39:02.889216Z","epoch_age_seconds":73108,"freshness":"FRESH","line1":"1 58893U 24020T   26144.94378344  .00000276  00000+0  19311-4 0  9993","line2":"2 58893  53.1609 327.6812 0001145  97.8166 262.2967 15.34390729129757","mean_motion":15.34390729,"eccentricity":0.0001145,"inclination_deg":53.1609,"raan_deg":327.6812,"arg_perigee_deg":97.8166,"mean_anomaly_deg":262.2967,"bstar":1.9311e-5,"rev_number":12975,"period_min":93.848325122408,"perigee_km":461.94751634901,"apogee_km":463.51407507423,"semimajor_km":6840.8677957116,"source":"CELESTRAK","updated_at":"2026-05-25T13:38:18.786930Z"}}}